Tracking 18844 objects as of 21-Nov-2017
HD Live streaming from Space Station
objects crossing your sky now

METEOR 2-13

Track METEOR 2-13 now!
10-day predictions
METEOR 2-13 is classified as:


NORAD ID: 16408
Int'l Code: 1985-119A
Perigee: 941.3 km
Apogee: 963.0 km
Inclination: 82.5 °
Period: 103.9 minutes
Semi major axis: 7323 km
RCS: 4.8137 m2 (large)
Launch date: December 26, 1985
Source: Commonwealth of Independent States (former USSR) (CIS)
Launch site: PLESETSK MISSILE AND SPACE COMPLEX (PKMTR)
aabbcc
Your satellite tracking list
Your tracking list is empty




NASA's NSSDC Master Catalog

Two Line Element Set (TLE):
1 16408U 85119A   17324.90783107 +.00000071 +00000-0 +49871-4 0  9996
2 16408 082.5387 229.1713 0014768 285.5248 074.4282 13.85341331612579
Source of the keplerian elements: AFSPC